CW7217 Weather Reports


time (UTC)temp
C
wind
direction
speed
KPH
gust
KPH
rain 1hr
cm
rain 24hr
cm
rain mn
cm
humidity
%
barometer
mb
20260510021557 27 0.0 0.0 0.00 0.00 0.00 41 1009.2
20260510020058 28 0.0 0.0 0.00 0.00 0.00 39 1009.0
20260510014556 28 0.0 0.0 0.00 0.00 0.00 37 1008.7
20260510013100 29 0.0 0.0 0.00 0.00 0.00 35 1008.6
20260510011558 30 0.0 0.0 0.00 0.00 0.00 34 1008.5
20260510010056 30 0.0 0.0 0.00 0.00 0.00 32 1008.5
20260510004553 31 0.0 0.0 0.00 0.00 0.00 30 1008.6
20260510003055 31 0.0 0.0 0.00 0.00 0.00 30 1008.6
20260510001555 32 0.0 0.0 0.00 0.00 0.00 30 1008.6
20260510000101 32 0.0 0.0 0.00 0.00 0.00 28 1008.6
20260509234552 33 0.0 0.0 0.00 0.00 0.00 29 1008.6
20260509233053 33 0.0 0.0 0.00 0.00 0.00 28 1008.7
20260509231556 34 0.0 0.0 0.00 0.00 0.00 26 1008.8
20260509230058 35 0.0 0.0 0.00 0.00 0.00 27 1008.8
20260509224557 35 0.0 0.0 0.00 0.00 0.00 26 1008.9
20260509223056 36 0.0 0.0 0.00 0.00 0.00 26 1008.8
20260509221555 36 0.0 0.0 0.00 0.00 0.00 26 1009.0
20260509220055 36 0.0 0.0 0.00 0.00 0.00 27 1009.0
20260509214619 36 0.0 0.0 0.00 0.00 0.00 26 1009.1
20260509213054 36 0.0 0.0 0.00 0.00 0.00 25 1009.3
20260509211554 36 0.0 0.0 0.00 0.00 0.00 29 1009.4
20260509204552 36 0.0 0.0 0.00 0.00 0.00 27 1009.9
20260509203107 36 0.0 0.0 0.00 0.00 0.00 29 1010.0
20260509201553 36 0.0 0.0 0.00 0.00 0.00 30 1010.2
20260509200055 36 0.0 0.0 0.00 0.00 0.00 31 1010.4
20260509194556 36 0.0 0.0 0.00 0.00 0.00 33 1010.6
20260509193059 36 0.0 0.0 0.00 0.00 0.00 33 1011.0
20260509191603 35 0.0 0.0 0.00 0.00 0.00 35 1011.1
20260509190057 35 0.0 0.0 0.00 0.00 0.00 35 1011.2
20260509184600 35 0.0 0.0 0.00 0.00 0.00 35 1011.2
20260509183104 35 0.0 0.0 0.00 0.00 0.00 37 1011.4
20260509181557 34 0.0 0.0 0.00 0.00 0.00 38 1011.6
20260509180056 35 0.0 0.0 0.00 0.00 0.00 36 1011.7
20260509174620 34 0.0 0.0 0.00 0.00 0.00 38 1012.0
20260509173056 33 0.0 0.0 0.00 0.00 0.00 40 1012.1
20260509171553 32 0.0 0.0 0.00 0.00 0.00 42 1012.4
20260509170100 32 0.0 0.0 0.00 0.00 0.00 42 1012.6
20260509164555 31 0.0 0.0 0.00 0.00 0.00 44 1012.7
20260509163101 31 0.0 0.0 0.00 0.00 0.00 45 1012.8
20260509161602 30 0.0 0.0 0.00 0.00 0.00 49 1012.8
20260509160057 28 0.0 0.0 0.00 0.00 0.00 53 1012.8
20260509154555 27 0.0 0.0 0.00 0.00 0.00 56 1012.8
20260509153105 26 0.0 0.0 0.00 0.00 0.00 61 1012.8
20260509151555 25 0.0 0.0 0.00 0.00 0.00 64 1012.9
20260509150055 25 0.0 0.0 0.00 0.00 0.00 67 1012.9
20260509144557 24 0.0 0.0 0.00 0.00 0.00 69 1013.0
20260509143055 23 0.0 0.0 0.00 0.00 0.00 72 1013.0
20260509141554 22 0.0 0.0 0.00 0.00 0.00 76 1013.0
20260509140055 21 0.0 0.0 0.00 0.00 0.00 80 1013.1
20260509134554 20 0.0 0.0 0.00 0.00 0.00 84 1013.0
20260509133054 19 0.0 0.0 0.00 0.00 0.00 86 1013.2
20260509131555 18 0.0 0.0 0.00 0.00 0.00 87 1012.9
20260509130107 18 0.0 0.0 0.00 0.00 0.00 87 1012.9
20260509124557 18 0.0 0.0 0.00 0.00 0.00 86 1012.8
20260509123055 18 0.0 0.0 0.00 0.00 0.00 86 1012.6
20260509121614 17 0.0 0.0 0.00 0.00 0.00 86 1012.5
20260509120055 17 0.0 0.0 0.00 0.00 0.00 86 1012.5
20260509114600 17 0.0 0.0 0.00 0.00 0.00 85 1012.2
20260509113059 17 0.0 0.0 0.00 0.00 0.00 84 1012.1
20260509111555 17 0.0 0.0 0.00 0.00 0.00 84 1012.0
20260509110100 17 0.0 0.0 0.00 0.00 0.00 84 1011.9
20260509104555 17 0.0 0.0 0.00 0.00 0.00 82 1011.9
20260509103102 18 0.0 0.0 0.00 0.00 0.00 80 1012.1
20260509101604 18 0.0 0.0 0.00 0.00 0.00 79 1011.9
20260509100054 18 0.0 0.0 0.00 0.00 0.00 78 1011.8
20260509094604 18 0.0 0.0 0.00 0.00 0.00 77 1011.8
20260509093057 18 0.0 0.0 0.00 0.00 0.00 76 1012.0
20260509091602 19 0.0 0.0 0.00 0.00 0.00 74 1012.3
20260509090101 19 0.0 0.0 0.00 0.00 0.00 74 1012.1
20260509084602 19 0.0 0.0 0.00 0.00 0.00 74 1012.1
20260509083102 19 0.0 0.0 0.00 0.00 0.00 75 1012.4
20260509081558 19 0.0 0.0 0.00 0.00 0.00 75 1012.6
20260509080100 19 0.0 0.0 0.00 0.00 0.00 76 1013.0
20260509074605 20 0.0 0.0 0.00 0.00 0.00 78 1012.8
20260509073059 20 0.0 0.0 0.00 0.00 0.00 82 1013.5
20260509071552 21 0.0 0.0 0.00 0.00 0.00 85 1013.6
20260509070057 20 0.0 0.0 0.00 0.00 0.00 86 1013.6
20260509064554 20 0.0 0.0 0.00 0.00 0.00 86 1013.6
20260509063053 20 0.0 0.0 0.00 0.00 0.00 86 1012.0
20260509061555 20 0.0 0.0 0.00 0.00 0.00 85 1011.8
20260509060107 20 0.0 0.0 0.00 0.00 0.00 85 1011.8
20260509054553 21 0.0 0.0 0.00 0.00 0.00 84 1012.2
20260509053132 21 0.0 0.0 0.00 0.00 0.00 83 1012.0
20260509051601 21 0.0 0.0 0.00 0.00 0.00 83 1010.8
20260509050104 21 0.0 0.0 0.00 0.00 0.00 82 1010.8
20260509044656 21 0.0 0.0 0.00 0.00 0.00 81 1011.0
20260509043140 22 0.0 0.0 0.00 0.00 0.00 80 1010.8
20260509041559 22 0.0 0.0 0.00 0.00 0.00 79 1010.6
20260509034557 22 0.0 0.0 0.00 0.00 0.00 78 1010.3
20260509033058 22 0.0 0.0 0.00 0.00 0.00 77 1010.2
20260509031602 22 0.0 0.0 0.00 0.00 0.00 75 1010.1
20260509030112 23 0.0 0.0 0.00 0.00 0.00 73 1010.0
20260509024558 23 0.0 0.0 0.00 0.00 0.00 72 1009.8
20260509023100 23 0.0 0.0 0.00 0.00 0.00 72 1009.8